This is the latest recevied weather packets stored in our database for station/object p43g-13. If no packets are shown the sender has not sent any weather packets the latest 10 day(s).
| Time | Temp. | Humidity | Pressure | Rain* | Wind** | Luminosity | Snow |
|---|---|---|---|---|---|---|---|
| 1787836076 | 30° C | 78% | 1012.1 hPa | 0 mm | - | 437 W/m² | - |
| 1787835776 | 30° C | 78% | 1012 hPa | 0 mm | - | 441 W/m² | - |
| 1787835476 | 30.56° C | 78% | 1012.1 hPa | 0 mm | - | 402 W/m² | - |
| 1787835176 | 30° C | 78% | 1011.9 hPa | 0 mm | - | 394 W/m² | - |
| 1787834876 | 30° C | 79% | 1012 hPa | 0 mm | - | 361 W/m² | - |
| 1787834575 | 30° C | 79% | 1011.9 hPa | 0 mm | - | 375 W/m² | - |
| 1787834276 | 30° C | 79% | 1012 hPa | 0 mm | - | 241 W/m² | - |
| 1787833975 | 29.44° C | 79% | 1012 hPa | 0 mm | - | 283 W/m² | - |
| 1787833676 | 29.44° C | 81% | 1012 hPa | 0 mm | - | 190 W/m² | - |
| 1787833376 | 29.44° C | 81% | 1012 hPa | 0 mm | - | 89 W/m² | - |
| 1787833076 | 29.44° C | 82% | 1012.1 hPa | 0 mm | - | 114 W/m² | - |
| 1787832777 | 29.44° C | 82% | 1012 hPa | 0 mm | - | 121 W/m² | - |
| 1787832476 | 29.44° C | 82% | 1011.8 hPa | 0 mm | - | 229 W/m² | - |
| 1787832176 | 29.44° C | 81% | 1011.8 hPa | 0 mm | - | 106 W/m² | - |
| 1787831875 | 29.44° C | 80% | 1011.7 hPa | 0 mm | - | 129 W/m² | - |
| 1787831575 | 29.44° C | 80% | 1011.9 hPa | 0 mm | - | 138 W/m² | - |
| 1787831274 | 28.89° C | 81% | 1011.9 hPa | 0 mm | - | 135 W/m² | - |
| 1787830974 | 28.89° C | 83% | 1011.8 hPa | 0 mm | - | 140 W/m² | - |
| 1787830675 | 28.89° C | 83% | 1011.8 hPa | 0 mm | - | 114 W/m² | - |
| 1787830375 | 28.89° C | 82% | 1011.7 hPa | 0 mm | - | 73 W/m² | - |
| 1787830075 | 28.33° C | 83% | 1011.6 hPa | 0 mm | - | 84 W/m² | - |
| 1787829775 | 28.33° C | 84% | 1011.4 hPa | 0 mm | - | 56 W/m² | - |
| 1787829463 | 28.33° C | 84% | 1011.5 hPa | 0 mm | - | 36 W/m² | - |
| 1787829163 | 28.33° C | 84% | 1011.6 hPa | 0 mm | - | 39 W/m² | - |
| 1787828863 | 28.33° C | 84% | 1011.5 hPa | 0 mm | - | 47 W/m² | - |
* Rain latest hour (hover to see other rain measurements)
** Current wind speed in m/s (hover to see current wind gust speed)